Regional Weather Roundup
Issued by NWS New Orleans/Baton Rouge, LA

Home | Current Version | Previous Version | Graphics & Text | Print | Product List | Glossary On
Versions: 1 2 3 4 5 6 7 8 9 10 11 12 13 14 15 16 17 18 19 20 21 22 23 24 25 26 27 28 29 30 31 32 33 34 35 36 37 38 39 40 41 42 43 44 45 46 47 48 49 50
934
ASUS44 KLIX 310807
RWRLIX
NEW ORLEANS REGIONAL WEATHER ROUNDUP
NATIONAL WEATHER SERVICE NEW ORLEANS LA
300 AM CDT TUE MAR 31 2015

NOTE: "FAIR" INDICATES FEW OR NO CLOUDS BELOW 12,000 FEET WITH NO
      SIGNIFICANT WEATHER AND/OR OBSTRUCTIONS TO VISIBILITY.
      SKY/WX - SKY CONDITION AND SIGNIFICANT WEATHER.
      TMP - AIR TEMPERATURE.     DP    - DEWPOINT TEMPERATURE.
      RH  - RELATIVE HUMIDITY.   PRES  - PRESSURE.
      HI  - HEAT INDEX.          WCI   - WIND CHILL INDEX.

*  THESE STATIONS ARE NOT NWS OR FAA STATIONS AND ARE NOT UNDER
   NWS QUALITY CONTROL.

LAZ038-040-048-061>063-065>067-069-310900-
SOUTHEAST LOUISIANA

CITY           SKY/WX    TMP DP  RH WIND       PRES   REMARKS
N.O. AUDUBON   NOT AVBL
N.O. INTL ARPT CLEAR     63  60  90 S5        30.12F
N.O. LAKEFRONT CLEAR     69  63  81 SW6       30.12F
SLIDELL        CLEAR     64  62  93 CALM      30.11F
BATON ROUGE    CLEAR     64  62  93 SW9       30.11F
BOOTHVILLE     CLEAR     69  66  90 SW5       30.14F
BELLE CHASSE   FOG       60  58  92 CALM      30.12F VSB 1/4
BOGALUSA*        N/A     63  59  86 CALM      30.12F
GALLIANO*      PTSUNNY   57  56  97 SW6       30.12F FOG
NEW ROADS*       N/A     62  60  94 S6        30.10F
GONZALES*        N/A     61  61 100 CALM      30.11F
HAMMOND*       CLEAR     63  59  88 CALM      30.13F
HOUMA*         FOG       58  58 100 CALM      30.12F VSB 1/4
PORT FOURCHON* SUNNY     70  66  88 CALM      30.16F

$$

MSZ070-080>082-310900-
SOUTHERN MISSISSIPPI

CITY           SKY/WX    TMP DP  RH WIND       PRES   REMARKS
MCCOMB         CLEAR     61  58  90 CALM      30.10F
GULFPORT       CLEAR     66  62  87 W3        30.11F
BILOXI         CLEAR     67  64  90 W6        30.11F
PASCAGOULA     CLEAR     66  64  93 SW5       30.11F

$$

COASTAL OBSERVATIONS
LAKE AND NEARSHORE STATIONS

STATION/POSITION TIME  TEMP    WIND        PRES    WAVE
                       AIR SEA DIR/SP/G            HT/PER
                 (UTC) (F)     (DEG/KT/KT) (MB)    (FT/S)
PASCAGOULA       0700   69     250/  7/ 11 1019.6
WAVELAND YACHT   0700   67 67  270/  5/  7 1020.1
GRAND ISLE       0700   69 71  220/  4/  5 1020.4
SOUTHWEST PASS   0700   65 54              1021.2
NEW CANAL        0700   68     220/  3/  4 1020.9
SHELL BEACH      0700   67 70  230/  5/  6 1020.5

OFFSHORE STATIONS

STATION/POSITION TIME  TEMP    WIND        PRES    WAVE
                       AIR SEA DIR/SP/G            HT/PER
                 (UTC) (F)     (DEG/KT/KT) (MB)    (FT/S)
64 S DAUPHIN ISL 0750   71 71  230/  8/ 10 1020.7    3/ 8

$$




USA.gov is the U.S. government's official web portal to all federal, state and local government web resources and services.